Wind_Speed
42 40 38 37 35 38 38 37 30 18 27 30 35 35 35 34 35 37 38 40 41 42 44 45 46 46 46 46 47 48 51 54 56 57 59 59 59 59 57 56 54 51 51
42 42 41 40 38 38 35 37 29 29 29 33 36 36 34 35 36 38 39 41 42 44 46 47 46 45 46 48 50 54 56 59 61 62 64 65 64 64 62 59 56 54 51
40 42 45 39 40 38 38 38 36 33 34 38 37 34 34 35 36 38 40 42 44 46 47 47 47 48 49 51 53 57 61 63 65 65 66 67 67 65 61 59 56 54 52
41 43 39 39 36 37 39 36 37 34 35 35 32 32 34 35 36 37 41 44 45 47 46 46 47 47 50 54 58 58 59 59 61 61 61 60 60 57 54 49 45 48 47
41 37 34 34 35 39 40 33 31 30 31 30 31 32 33 34 37 40 41 44 45 41 42 44 48 52 55 55 55 55 54 53 51 50 51 49 48 44 44 42 39 38 38
33 30 32 35 38 36 29 30 27 29 31 29 30 30 33 38 38 39 42 39 41 44 46 50 53 53 53 53 51 48 44 43 46 48 46 43 40 33 29 29 30 30 30
30 31 33 32 33 31 33 29 24 27 27 28 28 33 35 36 37 39 37 42 44 48 50 51 51 52 51 50 47 40 43 47 49 46 41 37 30 28 26 25 26 28 29
32 28 29 32 26 24 21 25 24 26 26 26 30 32 33 34 38 39 41 44 47 47 49 49 49 49 48 48 41 41 49 49 41 34 32 29 24 27 25 22 20 20 25
28 30 28 23 23 23 24 25 26 25 25 27 30 30 32 35 37 40 42 43 45 45 46 46 46 44 44 41 40 42 39 35 31 26 26 29 30 26 25 28 27 21 22
26 25 24 25 25 25 26 25 23 25 26 28 30 31 33 36 39 40 40 40 41 43 44 42 40 40 37 34 32 28 27 26 23 32 31 32 32 31 29 33 35 29 23
23 24 27 28 24 25 24 23 25 26 28 29 32 32 35 37 37 36 37 39 40 41 40 39 37 35 33 30 28 24 20 23 25 26 28 29 30 32 36 37 39 35 30
28 27 23 22 24 23 23 26 27 29 31 32 31 33 35 34 35 34 36 38 37 37 36 35 33 31 28 27 25 26 25 25 26 25 30 28 29 32 34 36 35 38 31
23 22 22 23 23 25 27 27 29 33 30 28 30 33 32 33 33 35 36 36 35 33 31 29 27 26 26 26 27 26 23 25 26 27 28 27 27 28 30 34 37 34 31
24 22 22 24 25 28 27 29 32 24 24 28 30 31 31 32 33 34 33 31 30 28 27 26 26 26 26 26 27 26 24 25 26 27 27 28 30 31 32 31 32 26 30
22 22 25 28 28 29 30 26 21 25 27 29 29 30 31 33 34 32 29 29 28 28 28 26 26 27 27 29 28 28 28 28 28 29 29 30 30 31 30 30 27 28 27
26 27 26 27 30 31 25 22 23 27 28 28 30 30 32 32 32 28 28 28 26 25 26 26 24 25 26 26 27 27 27 28 28 28 28 28 28 28 28 27 28 30 28
23 25 28 29 29 23 19 23 27 26 27 30 31 32 32 29 27 27 27 26 27 26 25 24 23 24 25 27 27 27 27 27 27 26 27 27 28 28 28 26 26 29 29
26 27 21 14 16 20 24 25 26 27 29 31 32 33 28 27 27 26 26 26 27 25 24 25 24 25 25 26 27 28 28 27 26 26 26 26 27 27 27 29 26 25 25
15 13 14 18 22 23 24 27 29 30 30 30 30 28 27 27 25 25 26 26 26 25 24 25 25 25 26 28 29 29 29 28 27 27 27 27 27 27 28 28 28 25 25
14 16 19 21 22 24 26 29 30 30 30 28 28 28 26 24 22 23 24 25 24 24 24 25 25 26 29 30 31 31 31 30 29 29 29 29 28 27 27 27 25 23 20
15 18 19 21 23 25 26 27 29 30 29 28 27 25 23 22 22 24 25 25 24 25 25 25 26 28 30 32 33 32 32 31 30 30 30 30 29 29 28 26 25 23 18
18 20 23 26 28 29 29 30 29 28 28 27 25 23 22 22 23 24 25 25 25 25 25 26 28 30 32 33 34 34 33 31 31 31 31 30 30 29 28 26 25 22 18
23 25 27 27 27 27 29 30 28 27 26 25 24 23 23 22 23 24 25 26 26 26 27 28 31 33 34 35 35 34 32 31 31 30 30 30 29 29 28 26 22 21 18
26 27 27 27 27 29 29 28 27 26 25 24 24 23 23 23 24 25 26 26 26 27 29 31 33 35 37 37 36 34 34 33 33 32 31 30 29 29 27 26 24 20 17
27 25 24 25 26 25 25 25 24 24 24 24 23 23 24 25 25 25 25 26 27 30 32 34 36 37 38 37 36 37 37 36 34 33 31 30 29 28 27 25 23 21 16
24 23 22 22 22 21 22 22 22 23 23 24 24 24 25 25 25 25 26 28 30 32 34 36 38 38 38 38 39 38 37 37 35 34 32 30 28 27 27 26 24 22 18
Wind_Direction
233 235 235 237 241 238 240 256 232 267 263 268 271 276 278 284 290 293 294 296 298 302 304 304 304 304 304 303 304 305 305 302 300 300 301 300 299 296 295 294 294 292 292
232 234 236 237 235 237 239 252 274 264 267 271 272 276 283 289 293 295 297 299 303 305 306 307 305 306 307 306 307 307 306 305 303 302 302 300 297 296 294 294 292 291 290
230 233 235 236 231 233 239 245 255 265 268 267 274 281 287 292 296 300 302 303 306 308 309 306 305 306 307 310 310 309 309 309 307 305 302 299 296 293 291 290 288 287 286
227 231 234 236 237 239 243 242 251 252 260 269 276 285 292 296 300 303 306 307 310 310 306 304 305 307 310 311 312 311 312 313 312 310 308 305 300 294 292 290 290 288 284
227 229 231 236 239 241 240 244 251 257 268 274 282 289 295 301 304 307 308 309 309 305 308 310 310 312 314 314 315 317 318 318 322 325 323 324 322 308 295 289 290 292 293
226 226 229 232 237 246 252 249 247 262 271 276 283 293 299 302 305 306 306 306 306 309 312 311 316 316 314 315 317 318 321 327 327 328 328 331 330 327 320 311 304 300 291
218 221 231 239 242 247 246 252 265 262 268 275 289 295 299 300 304 304 301 305 309 311 314 316 315 315 317 320 319 314 321 322 323 328 336 337 339 339 333 327 319 310 304
213 220 234 238 242 250 253 251 255 259 269 285 294 297 297 301 300 299 305 307 310 316 316 315 315 318 322 322 316 313 317 320 323 333 341 344 348 348 347 346 338 325 315
217 225 233 242 245 247 253 255 258 270 280 290 292 294 298 295 296 302 306 313 317 315 314 319 322 324 324 322 319 321 324 331 337 353 359 352 350 353 355 358 351 343 329
219 228 235 246 252 252 253 255 264 274 283 289 289 291 292 294 300 307 312 314 317 318 323 324 324 326 327 327 330 332 337 348 354 349 347 347 348 350 348 351 353 349 337
210 218 230 240 244 247 250 260 268 277 285 289 290 288 292 297 305 307 313 317 319 323 325 324 325 328 328 326 329 334 337 345 341 344 344 345 345 349 354 351 350 352 353
208 213 223 234 240 247 253 259 272 281 284 287 285 292 297 302 304 310 312 316 323 327 327 326 326 328 331 330 336 336 334 331 332 333 341 344 344 346 346 347 353 2 1
210 220 229 239 239 244 253 269 277 280 279 281 288 295 298 301 306 309 315 322 327 327 327 329 329 332 333 337 338 328 329 334 329 331 336 335 339 340 344 348 351 353 358
214 226 234 239 242 250 263 271 275 271 279 286 294 294 298 303 306 310 318 325 325 322 322 324 325 326 326 325 329 331 327 325 328 331 332 334 337 341 341 344 352 349 347
222 229 231 235 247 258 266 267 266 280 285 290 291 294 299 302 304 311 322 324 323 319 319 318 318 322 326 329 330 330 331 331 330 331 334 335 336 336 339 341 346 343 340
224 229 240 248 256 263 258 264 275 283 287 290 291 295 298 300 305 316 320 320 318 317 316 317 320 323 324 326 328 331 331 331 331 333 332 333 335 335 335 336 339 338 343
240 245 249 255 254 251 268 275 277 280 287 290 293 296 298 302 311 316 316 316 314 315 316 316 320 320 322 323 324 326 327 328 329 330 333 334 335 335 337 339 336 337 346
240 249 246 250 265 268 271 275 280 282 286 292 297 298 302 309 311 312 314 313 312 313 314 314 317 319 321 323 326 328 329 329 329 330 331 332 333 335 337 335 336 333 346
230 241 259 267 270 274 281 283 281 283 290 296 298 301 305 308 311 314 314 313 313 313 312 313 315 318 321 322 323 325 326 327 328 330 331 331 332 333 333 333 333 336 342
252 260 268 276 281 281 280 283 288 292 294 298 302 305 307 308 310 311 312 312 312 310 310 311 314 318 320 322 323 324 324 325 327 327 327 327 327 328 330 332 332 333 330
275 278 279 280 280 283 289 295 294 296 298 300 303 304 303 304 308 310 310 309 308 307 308 309 313 318 320 322 324 324 324 323 323 324 323 324 325 327 330 331 331 334 331
277 282 285 289 292 293 293 293 294 297 298 299 299 297 297 300 305 306 307 305 304 304 306 308 312 317 320 321 322 321 321 320 320 321 321 321 322 323 325 329 329 329 331
289 290 292 292 293 294 294 293 296 297 296 296 294 293 296 299 303 303 304 302 302 304 306 309 311 314 317 319 319 318 318 318 318 317 317 317 317 317 318 320 322 322 323
293 296 297 296 295 294 294 295 296 296 296 293 292 293 295 296 299 300 301 300 301 304 306 309 312 315 317 317 317 317 317 317 317 315 314 312 312 311 312 313 314 317 316
300 299 296 293 293 295 297 297 297 294 291 291 292 293 294 296 297 298 298 299 302 304 307 310 313 316 317 316 316 317 316 314 313 312 311 308 306 306 305 305 306 306 305
297 293 292 292 293 294 295 295 294 292 292 291 292 294 297 297 297 296 297 300 303 307 310 313 315 315 315 316 316 315 313 312 311 309 306 303 301 301 301 300 300 300 297
Height
5772 5777 5781 5783 5785 5786 5788 5791 5784 5785 5795 5796 5796 5796 5795 5793 5790 5788 5785 5781 5777 5772 5766 5760 5754 5748 5742 5736 5729 5721 5715 5709 5703 5698 5690 5684 5678 5673 5668 5663 5659 5655 5652
5764 5768 5772 5776 5778 5780 5783 5782 5777 5787 5789 5788 5790 5790 5788 5785 5783 5781 5777 5773 5769 5763 5757 5750 5745 5739 5732 5726 5717 5711 5704 5696 5690 5684 5676 5669 5662 5655 5649 5645 5641 5637 5635
5755 5759 5762 5769 5773 5776 5778 5779 5781 5782 5784 5785 5785 5783 5781 5779 5776 5773 5769 5766 5760 5754 5748 5742 5736 5729 5722 5714 5707 5700 5692 5684 5676 5668 5661 5651 5642 5635 5631 5626 5623 5621 5618
5747 5751 5757 5762 5767 5771 5773 5775 5777 5779 5780 5780 5779 5777 5775 5772 5769 5765 5761 5755 5750 5745 5739 5732 5726 5720 5713 5705 5696 5689 5680 5671 5662 5652 5642 5632 5623 5615 5611 5611 5609 5603 5602
5740 5747 5752 5757 5762 5765 5767 5769 5771 5774 5775 5774 5771 5769 5767 5765 5761 5756 5751 5746 5741 5736 5730 5724 5717 5709 5703 5695 5687 5678 5669 5660 5651 5640 5630 5620 5608 5601 5596 5595 5596 5595 5590
5737 5742 5748 5751 5754 5758 5761 5763 5765 5767 5767 5765 5764 5762 5761 5757 5752 5748 5743 5738 5733 5728 5721 5715 5707 5700 5693 5685 5677 5669 5662 5654 5644 5634 5623 5613 5603 5596 5590 5589 5588 5587 5586
5732 5738 5742 5746 5749 5752 5754 5757 5759 5760 5759 5758 5757 5755 5753 5750 5745 5741 5736 5731 5726 5719 5712 5706 5698 5691 5683 5675 5667 5661 5654 5646 5637 5628 5618 5609 5602 5596 5592 5587 5583 5580 5577
5728 5733 5737 5740 5743 5745 5749 5752 5752 5752 5753 5752 5750 5748 5746 5742 5738 5734 5729 5725 5718 5711 5705 5698 5691 5682 5673 5666 5658 5653 5646 5638 5630 5622 5615 5608 5602 5597 5591 5587 5583 5578 5572
5725 5729 5732 5735 5739 5741 5743 5744 5745 5747 5746 5745 5743 5741 5738 5734 5731 5727 5723 5717 5710 5704 5698 5690 5682 5674 5666 5659 5652 5646 5639 5631 5623 5617 5612 5607 5601 5595 5591 5586 5580 5574 5568
5719 5723 5727 5730 5732 5734 5736 5738 5739 5740 5740 5738 5736 5734 5730 5727 5724 5720 5715 5708 5703 5697 5689 5682 5675 5668 5661 5654 5647 5642 5636 5629 5623 5616 5610 5604 5599 5594 5588 5582 5576 5571 5565
5713 5718 5722 5724 5726 5728 5730 5731 5733 5733 5732 5731 5728 5726 5723 5720 5717 5712 5707 5701 5695 5688 5682 5675 5669 5662 5656 5650 5645 5639 5635 5629 5623 5617 5612 5605 5598 5592 5585 5578 5573 5568 5561
5710 5713 5715 5718 5720 5722 5724 5726 5727 5726 5725 5723 5721 5719 5716 5713 5709 5704 5700 5694 5687 5680 5675 5669 5664 5658 5652 5647 5641 5636 5631 5626 5621 5616 5610 5604 5599 5592 5586 5579 5571 5564 5558
5706 5709 5711 5714 5715 5717 5719 5720 5720 5718 5717 5716 5715 5712 5709 5705 5701 5698 5693 5686 5680 5675 5670 5664 5660 5656 5650 5644 5639 5634 5630 5624 5619 5614 5609 5603 5598 5593 5586 5578 5571 5565 5558
5701 5704 5707 5710 5711 5712 5713 5713 5712 5711 5710 5710 5707 5705 5701 5698 5695 5691 5685 5679 5675 5671 5667 5661 5656 5652 5648 5642 5637 5632 5627 5623 5618 5612 5606 5601 5594 5589 5584 5578 5573 5567 5559
5697 5700 5703 5704 5706 5707 5707 5706 5705 5705 5704 5702 5700 5697 5694 5692 5689 5684 5678 5673 5669 5666 5661 5656 5652 5647 5642 5638 5633 5628 5623 5619 5613 5608 5603 5598 5593 5587 5582 5577 5572 5566 5560
5693 5695 5698 5700 5701 5701 5700 5700 5700 5699 5697 5696 5694 5690 5688 5685 5681 5676 5672 5668 5663 5659 5656 5653 5647 5644 5640 5635 5630 5625 5620 5615 5611 5605 5600 5596 5591 5586 5581 5575 5569 5563 5559
5690 5691 5693 5694 5693 5694 5694 5693 5693 5692 5690 5689 5687 5684 5682 5678 5672 5669 5666 5662 5659 5655 5651 5648 5643 5640 5636 5632 5627 5622 5617 5612 5607 5603 5598 5593 5588 5583 5578 5573 5568 5561 5556
5685 5687 5687 5688 5688 5689 5689 5688 5687 5685 5684 5682 5679 5678 5674 5669 5665 5662 5660 5656 5653 5649 5646 5643 5639 5636 5632 5628 5623 5618 5613 5608 5603 5599 5595 5590 5585 5581 5576 5570 5566 5561 5557
5681 5682 5684 5684 5685 5684 5683 5682 5681 5679 5676 5675 5672 5669 5665 5661 5659 5656 5654 5651 5647 5645 5642 5639 5635 5631 5627 5623 5619 5614 5609 5604 5599 5595 5591 5587 5582 5578 5573 5568 5562 5559 5555
5679 5680 5680 5680 5679 5678 5678 5677 5674 5672 5670 5667 5664 5661 5658 5656 5653 5650 5648 5645 5642 5640 5637 5634 5630 5626 5623 5618 5614 5609 5604 5599 5594 5590 5586 5582 5578 5574 5570 5565 5561 5558 5555
5676 5676 5675 5674 5674 5672 5670 5668 5666 5664 5662 5660 5657 5654 5653 5651 5647 5644 5642 5640 5637 5635 5632 5629 5625 5621 5617 5613 5608 5604 5599 5594 5590 5585 5581 5577 5574 5570 5566 5562 5558 5555 5552
5671 5670 5669 5668 5666 5664 5663 5661 5659 5657 5655 5653 5650 5648 5646 5644 5641 5639 5637 5635 5632 5629 5627 5624 5620 5616 5612 5608 5603 5598 5594 5590 5585 5581 5576 5573 5569 5565 5561 5559 5555 5552 5550
5665 5665 5663 5662 5659 5657 5656 5654 5651 5649 5648 5646 5644 5642 5640 5637 5636 5634 5632 5630 5626 5624 5621 5617 5613 5609 5605 5601 5596 5592 5588 5583 5579 5576 5572 5568 5564 5561 5557 5554 5552 5550 5548
5661 5659 5657 5655 5653 5651 5649 5646 5644 5642 5641 5640 5639 5636 5634 5632 5630 5628 5626 5623 5621 5617 5614 5610 5606 5602 5597 5593 5588 5584 5580 5576 5572 5568 5565 5562 5558 5555 5552 5549 5547 5546 5545
5653 5650 5649 5647 5646 5644 5642 5640 5638 5637 5635 5634 5632 5630 5628 5626 5624 5622 5619 5617 5614 5611 5607 5603 5598 5594 5589 5585 5580 5576 5571 5568 5564 5560 5557 5554 5551 5548 5546 5545 5543 5541 5541
5646 5645 5643 5641 5639 5637 5635 5633 5632 5631 5629 5627 5626 5624 5622 5620 5618 5615 5613 5610 5607 5603 5599 5594 5590 5585 5580 5576 5571 5566 5562 5558 5555 5552 5549 5546 5544 5541 5539 5538 5537 5536 5536